SVMC/MAR METAR and TAF weather

Enter ICAO airport designator
Station Type Date Time Source
SVMC METAR 2021/07/04 21:03 UTC NOAA

SVMC 042103Z AUTO 00000KT NCD 34/// Q////


Station Type Date Time Source
SVMC Decoded METAR 2021/07/04 21:03 UTC NOAA

Maracaibo-La Chinita, Venezuela (SVMC) 10-34N 071-44W 65M
Jul 04, 2021 - 05:03 PM EDT / 2021.07.04 2103 UTC
Wind: Calm:0
Temperature: 93 F (34 C)
ob: SVMC 042103Z AUTO 00000KT NCD 34/// Q////
cycle: 21

Station Type Date Time Source
SVMC TAF 2022/05/24 12:04 UTC NOAA

TAF SVMC 241000Z 2412/2512 12004KT 9999 SCT016 TX33/2419Z TN23/2508Z PROB30
TEMPO 1812/1816 12003KT 9000 -DZ SCT016 SCT080

Example: see airport list